Location: Campillo
(40.8621°N, 4.2488°W)
Time: 21:35:33
(UTC+00:00)

Cosmos 1633 Rocket - Pass Details

Date: 26 September 2021
Orbit: 607 x 623 km, 82.5° (Epoch: 23 October)

Event Time Altitude Azimuth Distance (km) Brightness Sun altitude
Rises 03:59:22 0° 344° (NNW) 2,912 6.6 -24.7°
Reaches altitude 10° 04:01:42 10° 336° (NNW) 1,999 5.6 -24.3°
Enters shadow 04:01:47 10° 336° (NNW) 1,969 5.6 -24.3°
